Hlavní strana
METAR-TAF:

METAR-TAF

Letiště :

Remada, Tunisko

zeměpisná šířka: 32-19N, zeměpisná délka: 010-24E, výška: 300 m

Aktuální stav počasí

Zpráva byla vytvořena před 54 minutami, v 01:00 UTC
Západoseverozápadní vítr 3 kt, proměnlivý mezi západojihozápadním a severozápadním
Teplota 11°C
Vlhkost vzduchu 87%
Tlak 1013 hPa

METAR: DTTD 040100Z AUTO 30003KT 250V320 NCD 11/09 Q1013

Čas: 02:54 (01:54 UTC)


TAF: chybějící

Stav a předpovědi počasí z více než 4 000 letišť (zprávy METAR a TAF).

Červené a žluté tečky na mapě představují dostupné meteorologické stanice.

Když kurzor umístíte na tečku, zobrazí se název stanice.

Pak kliknutím zobrazíte stav a předpověď počasí.

Chcete-li změnit mapu, kliknutím na zelené tlačítko se znaménkem +mapu přiblížíte, kliknutím na zelené tlačítko se znaménkem – mapu oddálíte a kliknutím na zelené šipky přejdete na sousední mapy.


METAR-TAF: